Regional Weather Roundup
Issued by NWS Boston, MA

Current Version | Previous Version | Text Only | Print | Product List | Glossary Off
Versions: 1 2 3 4 5 6 7 8 9 10 11 12 13 14 15 16 17 18 19 20 21 22 23 24 25 26 27 28
000 ASUS41 KBOX 220710 RWRBOX REGIONAL WEATHER ROUNDUP NATIONAL WEATHER SERVICE TAUNTON MA 300 AM EDT TUE AUG 22 2017 NOTE: "FAIR" INDICATES FEW OR NO CLOUDS BELOW 12,000 FEET WITH NO SIGNIFICANT WEATHER AND/OR OBSTRUCTIONS TO VISIBILITY. MAZALL-220800- EASTERN MASSACHUSETTS CITY SKY/WX TMP DP RH WIND PRES REMARKS BOSTON CLEAR 73 65 75 SW8 30.03F BEVERLY CLEAR 71 64 78 S3 30.03F LAWRENCE CLEAR 72 64 76 S6 30.05F BEDFORD CLEAR 69 62 78 S3 30.02F BLUE HILL N/A 70 64 81 SW13 30.05F NORWOOD CLEAR 66 63 90 CALM 30.04F MARSHFIELD CLEAR 72 66 83 VRB5 30.04F PLYMOUTH CLEAR 68 64 87 SW5 30.07S TAUNTON CLEAR 70 66 87 VRB3 30.05F NEW BEDFORD CLEAR 68 66 93 CALM 30.05F $$ MAZALL-220800- CAPE COD AND THE ISLANDS CITY SKY/WX TMP DP RH WIND PRES REMARKS FALMOUTH CLEAR 70 70 100 SW8 30.08S HYANNIS CLEAR 71 70 96 SW9 30.06F CHATHAM CLEAR 71 71 100 VRB6 30.08F PROVINCETOWN CLEAR 69 66 90 SW8 30.06F NANTUCKET CLEAR 68 68 100 SW10 30.09F MARTHAS VNYRD MOCLDY 71 68 90 SW7 30.07F FOG $$ MAZALL-220800- CENTRAL AND WESTERN MASSACHUSETTS CITY SKY/WX TMP DP RH WIND PRES REMARKS WORCESTER CLEAR 67 64 90 W12 30.07F FITCHBURG CLEAR 72 66 81 N6 30.04F ORANGE CLEAR 64 64 100 CALM 30.05F SPRINGFIELD CLEAR 69 65 88 S5 30.03F WESTFIELD CLEAR 69 67 93 CALM 30.04F NORTH ADAMS CLEAR 65 64 97 CALM 30.05F PITTSFIELD CLEAR 67 65 93 NE3 30.06F $$ RIZALL-220800- RHODE ISLAND CITY SKY/WX TMP DP RH WIND PRES REMARKS PROVIDENCE CLEAR 72 70 93 SW8 30.06F NEWPORT CLEAR 70 69 97 S6 30.07F BLOCK ISLAND CLOUDY 70 69 97 SW10 30.08F WESTERLY CLEAR 70 68 93 CALM 30.07F $$ CTZALL-220800- CONNECTICUT CITY SKY/WX TMP DP RH WIND PRES REMARKS BRADLEY INTL PTCLDY 70 68 93 S7 30.05F HARTFORD CLEAR 72 70 93 S5 30.04F BRIDGEPORT CLEAR 75 71 87 SW6 30.05F DANBURY CLEAR 72 69 90 CALM 30.08F GROTON CLEAR 72 69 90 SW5 30.06F NEW HAVEN CLEAR 74 70 87 SW5 30.06F CHESTER FAIR 72 70 94 CALM 30.08S MERIDEN CLEAR 67 65 93 CALM 30.06F WILLIMANTIC CLEAR 66 65 96 CALM 30.07F OXFORD CLEAR 69 69 100 S3 30.08F FOG $$ MEZ002-015-021-024-NHZ003-005-008-011-012-014-VTZ005-008-220800- NORTHERN NEW ENGLAND CITY SKY/WX TMP DP RH WIND PRES REMARKS PORTLAND ME CLEAR 64 61 90 CALM 30.00F BANGOR ME PTCLDY 65 62 90 SW3 29.99F CONCORD NH CLEAR 62 60 93 CALM 30.03F MANCHESTER NH CLEAR 69 63 81 CALM 30.02F NASHUA NH CLEAR 66 65 96 CALM 30.03F PORTSMOUTH NH CLEAR 66 63 88 CALM 30.01F JAFFREY NH CLEAR 63 63 100 CALM 30.08F KEENE NH N/A N/A N/A N/A MISG N/A BURLINGTON VT PTCLDY 70 65 84 CALM 29.98F MT. WASHINGTON FOG 52 52 100 W21 N/A VSB 1/16 $$ NYZ052-076-220800- EASTERN NEW YORK CITY SKY/WX TMP DP RH WIND PRES REMARKS ALBANY PTCLDY 70 67 90 CALM 30.03F NEW YORK CITY PTCLDY 77 72 84 S8 30.05F $$ ANZALL-220800- MARINE OBSERVATIONS STATION/POSITION TIME TEMP WIND PRES VSBY WAVE AIR SEA DIR/SP/G HT/PER (UTC) (F) (DEG/KT/KT) (MB) (MI) (FT/S) BOSTON BUOY 0650 69 68 200/ 6/ 6 1017.0F 1 BUZZARDS BAY 0600 70 220/ 13/ 14 1018.9F NANTUCKET SOUND 0650 71 71 230/ 12/ 14 1018.3F 1/ 3 MASS BAY-STELLWA 0604 70 67 210/ 8/ 8 1016.6S 1/ 3 ISLE OF SHOALS 0600 71 220/ 9/ 9 1016.8R S OF BLOCK IS NOT AVBL $$ ......................KEY......................... SKY/WX - SKY CONDITION/PRESENT WEATHER TMP - TEMPERATURE IN FAHRENHEIT DWPT - DEWPOINT IN FAHRENHEIT RH - RELATIVE HUMIDITY IN PERCENT WIND - DIRECTION AND SPEED IN MPH PRES - MEAN SEA LEVEL PRESSURE IN INCHES OF HG WCI - WIND CHILL INDEX VSB - VISIBILITY IN MILES HX - HEAT INDEX TC - TEMPERATURE IN CELSIUS VRB - VARIABLE WIND DIRECTION N/A - NOT AVAILABLE

USA.gov is the U.S. government's official web portal to all federal, state and local government web resources and services.